[Date Prev][Date Next][Thread Prev][Thread Next] - [Date Index][Thread Index][Author Index]

2 Line ISS Keps 1-21



ISS
1 25544U 98067A   03021.19955443  .00028012  00000-0  35166-3 0  6068
2 25544  51.6369  38.6010 0005819  60.7953  28.2990 15.59473399238078


----
Via the sarex mailing list at AMSAT.ORG courtesy of AMSAT-NA.
To unsubscribe, send "unsubscribe sarex" to Majordomo@amsat.org



AMSAT Top AMSAT Home